Flag for India Weather past 2 weeks in Jaipur, Rajasthan, India

Now
93 °F

Haze.


Feels Like: 91 °F
Forecast: 76 / 96 °F
Wind: 6 mph from Northwest

Location: Jaipur / Sanganer

Current Time: Oct 2, 2014 at 7:21:31 PM

Latest Report: Oct 2, 2014 at 6:00 PM


Visibility: 2 mi

Pressure: 29.86 "Hg

Humidity: 28%

Dew point: 55 °F

Location of JaipurLocation

Historic Weather in Jaipur — Graph

°F

Jaipur temperature yesterday

Maximum temperature yesterday: 95 °F (at 3:00 PM)
Minimum temperature yesterday: 77 °F (at 1:00 AM)
Average temperature yesterday: 87 °F

Past Weeks' High & Low Weather Summary

 TemperatureHumidityPressure
High102 °F (Sep 26, 11:00 AM)100% (Sep 19, 3:00 AM)30.01 "Hg (Sep 19, 3:00 AM)
Low72 °F (Sep 19, 3:00 AM)26% (Sep 29, 5:00 PM)29.65 "Hg (Sep 20, 4:00 PM)
Average85 °F53%29.85 "Hg
* Reported Sep 17 6:00 PM — Oct 2 6:00 PM, Jaipur, Weather by CustomWeather, © 2014

Note: Actual official high and low records may vary slightly from our data, if they occured in-between our weather recording intervals... More about our weather records

Advertising

Jaipur weather history for previous 24 hours

 ConditionsComfort  
Time TempWeatherWind HumidityBarometerVisibility
6:00 PM
Oct 2
93 °FHaze.6 mph28%29.86 "Hg2 mi
5:00 PM93 °FHaze.8 mph30%29.86 "Hg2 mi
4:00 PM97 °FHaze.7 mph27%29.86 "Hg2 mi
3:00 PM95 °FHaze.8 mph28%29.89 "Hg2 mi
2:00 PM95 °FHaze.8 mph28%29.89 "Hg2 mi
1:00 PM95 °FHaze.8 mph34%29.92 "Hg2 mi
12:00 PM93 °FHaze.12 mph39%29.95 "Hg2 mi
11:00 AM91 °FHaze.9 mph41%29.98 "Hg2 mi
10:00 AM90 °FHaze.9 mph41%30.01 "Hg2 mi
9:00 AM88 °FHaze.6 mph46%30.01 "Hg2 mi
8:00 AM84 °FHaze.3 mph51%29.98 "Hg2 mi
7:00 AM81 °FHaze.5 mph58%29.95 "Hg2 mi
6:00 AM82 °FHaze.6 mph51%29.95 "Hg2 mi
5:00 AM82 °FHaze.6 mph51%29.92 "Hg2 mi
4:00 AM82 °FHaze.3 mph51%29.92 "Hg2 mi
3:00 AM82 °FHaze.3 mph51%29.92 "Hg2 mi
2:00 AM84 °FHaze.3 mph45%29.92 "Hg2 mi
1:00 AM82 °FHaze.2 mph48%29.92 "Hg2 mi
12:00 AM84 °FHaze.2 mph45%29.92 "Hg2 mi
11:00 PM
Oct 1
86 °FHaze.5 mph43%29.95 "Hg2 mi
10:00 PM86 °FHaze.3 mph43%29.95 "Hg2 mi
9:00 PM88 °FHaze.3 mph38%29.95 "Hg2 mi
7:00 PM90 °FPassing clouds.3 mph36%29.89 "Hg2 mi
Weather by CustomWeather, © 2014

See weather overviewHow to use our weather pages